Regional Weather Roundup
Issued by NWS

Home | Current Version | Previous Version | Graphics & Text | Print | Product List | Glossary Off
Versions: 1 2 3 4 5 6 7 8 9 10 11 12 13 14 15 16 17 18 19 20 21 22 23 24 25 26 27 28 29 30 31 32 33 34 35 36 37 38 39 40 41 42 43 44 45 46 47 48 49 50

000
ASUS43 KTOP 240959
RWRKS

WEATHER ROUNDUP FOR KANSAS
NATIONAL WEATHER SERVICE GOODLAND KS
500 AM CDT FRI MAR 24 2017

NOTE:  "FAIR" INDICATES FEW OR NO CLOUDS BELOW 12,000 FEET WITH NO
SIGNIFICANT WEATHER AND/OR OBSTRUCTIONS TO VISIBILITY.

KSZ001>006-013>018-027>032-041>047-241100-
NORTHWEST KANSAS

CITY           SKY/WX    TMP DP  RH WIND       PRES   REMARKS
GOODLAND       CLOUDY    49  48  97 NE25G36   29.61S
HAYS             N/A     58  46  64 E9        29.61F
HILL CITY      CLOUDY    54  54 100 E9        29.64R
RUSSELL        CLOUDY    64  45  49 SE15      29.60F
$$

KSZ061>065-074>080-084>089-241100-
SOUTHWEST KANSAS

CITY           SKY/WX    TMP DP  RH WIND       PRES   REMARKS
DODGE CITY     CLOUDY    55  46  71 S17       29.56F
ELKHART          N/A     41  27  57 S20         N/A
GARDEN CITY    CLEAR     50  35  56 S15       29.54F
GREAT BEND     PTCLDY    63  45  51 S22G28    29.59F
LIBERAL        CLEAR     46  28  49 S9        29.54S
$$

KSZ066>073-081>083-090>101-241100-
SOUTHEAST KANSAS

CITY           SKY/WX    TMP DP  RH WIND       PRES   REMARKS
CHANUTE        CLEAR     66  44  45 S16       29.79F
COFFEYVILLE    CLEAR     69  41  36 S21G33    29.79F
HUTCHINSON     CLOUDY    67  42  40 S28       29.64F
MEDICINE LODGE   N/A     66  43  43 S15G25    29.63R
NEWTON         CLOUDY    66  41  40 S26       29.69F
PARSONS        CLEAR     68  42  38 S15G23    29.80F
WICHITA INTL   CLOUDY    68  41  37 S26G37    29.68F
WICHITA JABRA  MOCLDY    68  41  37 S23G36    29.69F
WINFIELD       CLOUDY    69  41  36 S25G36    29.74S
$$

KSZ007>012-019>026-033>040-048>060-102>105-241100-
NORTHEAST KANSAS

CITY           SKY/WX    TMP DP  RH WIND       PRES   REMARKS
CONCORDIA      CLOUDY    67  47  48 S20G26    29.68R
EMPORIA        CLOUDY    63  49  60 S13       29.74F
LAWRENCE       MOCLDY    68  50  52 SE17      29.75F
MANHATTAN      CLOUDY    69  47  45 S16G24    29.66F
OLATHE IND     PTCLDY    66  48  52 S14G25    29.78F
OLATHE EXE     CLEAR     66  49  54 S15G24    29.79F
SALINA         CLOUDY    70  44  39 S21G30    29.65F
TOPEKA BILLARD PTCLDY    67  50  54 S13       29.72F
TOPEKA FORBES  PTCLDY    67  49  52 S15       29.73F
$$



USA.gov is the U.S. government's official web portal to all federal, state and local government web resources and services.